• în România
  • Lista ţărilor
  • Pe 7 zile
  • Temperatura apei
  • Hartă satelitară
  • Meteo pe hartă
  • Widget-uri
  • user-avatar
    Intrare

    Meteo pe oră la Kerns

    Astăzi, 16 Iulie, Luni

    Timp Temperatura Precipitaţii Vânt Presiune Umiditate
    00:00 +18°C° 0 mm 2 m/s 760 mmHg 90%
    01:00 +18°C° 0 mm 2 m/s 760 mmHg 90%
    02:00 +18°C° 0 mm 3 m/s 760 mmHg 90%
    03:00 +18°C° 0 mm 3 m/s 760 mmHg 89%
    04:00 +18°C° 0 mm 3 m/s 760 mmHg 89%
    05:00 +18°C° 0 mm 3 m/s 760 mmHg 90%
    06:00 +18°C° 0 mm 3 m/s 760 mmHg 91%
    07:00 +18°C° 0 mm 2 m/s 760 mmHg 92%
    08:00 +21°C° 0 mm 2 m/s 760 mmHg 81%
    09:00 +26°C° 0 mm 2 m/s 760 mmHg 70%
    10:00 +29°C° 0 mm 2 m/s 760 mmHg 59%
    11:00 +30°C° 0 mm 3 m/s 760 mmHg 55%
    12:00 +31°C° 0 mm 3 m/s 760 mmHg 51%
    13:00 +33°C° 0 mm 4 m/s 759 mmHg 48%
    14:00 +32°C° 0 mm 4 m/s 759 mmHg 52%
    15:00 +30°C° 0 mm 4 m/s 758 mmHg 56%
    16:00 +29°C° 0 mm 4 m/s 758 mmHg 60%
    17:00 +27°C° 0 mm 4 m/s 758 mmHg 72%
    18:00 +25°C° 0 mm 4 m/s 759 mmHg 84%
    19:00 +22°C° 0 mm 3 m/s 759 mmHg 95%
    20:00 +21°C° 0 mm 3 m/s 759 mmHg 96%
    21:00 +21°C° 0 mm 3 m/s 760 mmHg 96%
    22:00 +21°C° 0 mm 3 m/s 760 mmHg 96%
    23:00 +20°C° 0 mm 3 m/s 760 mmHg 96%

    Mâine, 17 Iulie, Marţi

    Timp Temperatura Precipitaţii Vânt Presiune Umiditate
    00:00 +20°C° 0 mm 3 m/s 760 mmHg 96%
    01:00 +19°C° 0 mm 3 m/s 760 mmHg 96%
    02:00 +19°C° 0 mm 3 m/s 760 mmHg 95%
    03:00 +19°C° 0 mm 3 m/s 760 mmHg 95%
    04:00 +19°C° 0 mm 3 m/s 760 mmHg 94%
    05:00 +19°C° 0 mm 3 m/s 760 mmHg 94%
    06:00 +19°C° 0 mm 4 m/s 760 mmHg 95%
    07:00 +19°C° 0 mm 4 m/s 761 mmHg 95%
    08:00 +21°C° 0 mm 4 m/s 761 mmHg 87%
    09:00 +23°C° 0 mm 5 m/s 762 mmHg 78%
    10:00 +26°C° 0 mm 5 m/s 762 mmHg 70%
    11:00 +27°C° 0 mm 5 m/s 761 mmHg 67%
    12:00 +28°C° 0 mm 5 m/s 761 mmHg 64%
    13:00 +29°C° 0 mm 5 m/s 760 mmHg 61%
    14:00 +28°C° 0 mm 5 m/s 760 mmHg 63%
    15:00 +28°C° 0 mm 5 m/s 760 mmHg 65%
    16:00 +28°C° 0 mm 5 m/s 760 mmHg 67%
    17:00 +26°C° 0 mm 5 m/s 760 mmHg 75%
    18:00 +23°C° 0 mm 5 m/s 760 mmHg 83%
    19:00 +22°C° 0 mm 5 m/s 761 mmHg 91%
    20:00 +21°C° 0 mm 5 m/s 761 mmHg 92%
    21:00 +21°C° 0 mm 4 m/s 762 mmHg 93%
    22:00 +21°C° 0 mm 4 m/s 762 mmHg 95%
    23:00 +21°C° 0,1 mm 4 m/s 762 mmHg 95%

    Poimâine, 18 Iulie, Miercuri

    Timp Temperatura Precipitaţii Vânt Presiune Umiditate
    00:00 +21°C° 0,1 mm 4 m/s 762 mmHg 96%
    01:00 +21°C° 0,1 mm 4 m/s 762 mmHg 97%
    02:00 +21°C° 0,2 mm 4 m/s 761 mmHg 97%
    03:00 +22°C° 0,2 mm 4 m/s 761 mmHg 97%
    04:00 +22°C° 0,2 mm 5 m/s 760 mmHg 97%
    05:00 +22°C° 0,3 mm 5 m/s 761 mmHg 97%
    06:00 +22°C° 0,3 mm 5 m/s 761 mmHg 96%
    07:00 +22°C° 0,3 mm 5 m/s 761 mmHg 96%
    08:00 +23°C° 0,3 mm 5 m/s 762 mmHg 95%
    09:00 +23°C° 0,3 mm 5 m/s 762 mmHg 94%
    10:00 +23°C° 0,3 mm 5 m/s 762 mmHg 92%
    11:00 +25°C° 0,3 mm 5 m/s 762 mmHg 92%
    12:00 +25°C° 0,3 mm 5 m/s 762 mmHg 91%
    13:00 +25°C° 0,3 mm 5 m/s 761 mmHg 90%
    14:00 +25°C° 0,2 mm 5 m/s 761 mmHg 90%
    15:00 +25°C° 0,2 mm 5 m/s 761 mmHg 91%
    16:00 +23°C° 0,2 mm 5 m/s 760 mmHg 91%
    17:00 +23°C° 0,2 mm 6 m/s 761 mmHg 92%
    18:00 +23°C° 0,2 mm 6 m/s 761 mmHg 93%
    19:00 +22°C° 0,2 mm 6 m/s 762 mmHg 94%
    20:00 +22°C° 0,1 mm 6 m/s 762 mmHg 94%
    21:00 +22°C° 0,1 mm 6 m/s 762 mmHg 93%
    22:00 +22°C° 0,1 mm 6 m/s 763 mmHg 93%
    23:00 +22°C° 0,1 mm 6 m/s 763 mmHg 94%

    19 Iulie, Joi

    Timp Temperatura Precipitaţii Vânt Presiune Umiditate
    00:00 +22°C° 0,1 mm 6 m/s 762 mmHg 95%
    01:00 +21°C° 0,1 mm 6 m/s 762 mmHg 95%
    02:00 +21°C° 0,1 mm 5 m/s 762 mmHg 95%
    03:00 +21°C° 0,1 mm 5 m/s 761 mmHg 94%
    04:00 +21°C° 0,1 mm 5 m/s 761 mmHg 93%
    05:00 +21°C° 0,1 mm 5 m/s 761 mmHg 93%
    06:00 +21°C° 0,1 mm 5 m/s 762 mmHg 93%
    07:00 +21°C° 0,1 mm 5 m/s 762 mmHg 93%
    08:00 +22°C° 0,1 mm 5 m/s 762 mmHg 89%
    09:00 +23°C° 0,1 mm 5 m/s 763 mmHg 85%
    10:00 +25°C° 0,1 mm 5 m/s 763 mmHg 81%
    11:00 +25°C° 0 mm 5 m/s 762 mmHg 78%
    12:00 +26°C° 0 mm 5 m/s 762 mmHg 74%
    13:00 +27°C° 0 mm 5 m/s 761 mmHg 71%
    14:00 +27°C° 0 mm 4 m/s 761 mmHg 71%
    15:00 +26°C° 0 mm 4 m/s 760 mmHg 72%
    16:00 +26°C° 0 mm 4 m/s 760 mmHg 73%
    17:00 +25°C° 0 mm 4 m/s 760 mmHg 80%
    18:00 +22°C° 0 mm 4 m/s 761 mmHg 86%
    19:00 +21°C° 0 mm 4 m/s 761 mmHg 93%
    20:00 +21°C° 0 mm 3 m/s 762 mmHg 94%
    21:00 +21°C° 0 mm 3 m/s 762 mmHg 95%
    22:00 +21°C° 0 mm 3 m/s 762 mmHg 96%
    23:00 +21°C° 0 mm 3 m/s 762 mmHg 96%

    20 Iulie, Vineri

    Timp Temperatura Precipitaţii Vânt Presiune Umiditate
    00:00 +21°C° 0 mm 2 m/s 762 mmHg 96%
    01:00 +21°C° 0 mm 2 m/s 762 mmHg 95%
    02:00 +21°C° 0 mm 2 m/s 761 mmHg 96%
    03:00 +21°C° 0 mm 2 m/s 761 mmHg 96%
    04:00 +20°C° 0 mm 2 m/s 761 mmHg 97%
    05:00 +20°C° 0 mm 2 m/s 761 mmHg 97%
    06:00 +20°C° 0 mm 2 m/s 761 mmHg 97%
    07:00 +20°C° 0 mm 2 m/s 762 mmHg 98%
    08:00 +23°C° 0 mm 2 m/s 762 mmHg 87%
    09:00 +26°C° 0 mm 2 m/s 762 mmHg 76%
    10:00 +29°C° 0 mm 2 m/s 762 mmHg 66%
    11:00 +28°C° 0 mm 2 m/s 762 mmHg 67%
    12:00 +28°C° 0 mm 2 m/s 761 mmHg 69%
    13:00 +28°C° 0 mm 2 m/s 761 mmHg 70%
    14:00 +27°C° 0,1 mm 2 m/s 760 mmHg 75%
    15:00 +27°C° 0,1 mm 2 m/s 760 mmHg 80%
    16:00 +26°C° 0,1 mm 2 m/s 760 mmHg 85%
    17:00 +25°C° 0 mm 2 m/s 760 mmHg 89%
    18:00 +24°C° 0 mm 2 m/s 761 mmHg 93%
    19:00 +23°C° 0 mm 2 m/s 761 mmHg 97%
    20:00 +23°C° 0 mm 2 m/s 762 mmHg 97%
    21:00 +23°C° 0 mm 2 m/s 762 mmHg 98%
    22:00 +23°C° 0 mm 1 m/s 762 mmHg 98%
    23:00 +22°C° 0 mm 1 m/s 762 mmHg 98%

    21 Iulie, Sâmbătă

    Timp Temperatura Precipitaţii Vânt Presiune Umiditate
    00:00 +21°C° 0 mm 2 m/s 762 mmHg 98%
    01:00 +21°C° 0 mm 2 m/s 762 mmHg 98%
    02:00 +20°C° 0 mm 2 m/s 762 mmHg 97%
    03:00 +20°C° 0 mm 2 m/s 762 mmHg 97%
    04:00 +20°C° 0 mm 3 m/s 761 mmHg 96%
    05:00 +20°C° 0 mm 3 m/s 762 mmHg 95%
    06:00 +19°C° 0 mm 4 m/s 762 mmHg 93%
    07:00 +19°C° 0 mm 4 m/s 763 mmHg 91%
    08:00 +21°C° 0 mm 5 m/s 763 mmHg 78%
    09:00 +23°C° 0 mm 5 m/s 763 mmHg 65%
    10:00 +26°C° 0 mm 5 m/s 763 mmHg 53%
    11:00 +27°C° 0 mm 5 m/s 763 mmHg 50%
    12:00 +28°C° 0 mm 6 m/s 762 mmHg 47%
    13:00 +29°C° 0 mm 6 m/s 762 mmHg 45%
    14:00 +29°C° 0 mm 6 m/s 761 mmHg 46%
    15:00 +28°C° 0 mm 6 m/s 761 mmHg 48%
    16:00 +28°C° 0 mm 6 m/s 761 mmHg 50%
    17:00 +25°C° 0 mm 5 m/s 761 mmHg 58%
    18:00 +22°C° 0 mm 5 m/s 762 mmHg 66%
    19:00 +20°C° 0 mm 5 m/s 762 mmHg 75%
    20:00 +19°C° 0 mm 5 m/s 763 mmHg 80%
    21:00 +19°C° 0 mm 4 m/s 763 mmHg 85%
    22:00 +19°C° 0 mm 4 m/s 763 mmHg 90%
    23:00 +19°C° 0,1 mm 4 m/s 763 mmHg 92%
    Arată mai mult